OPS 4682 DEB, 18533

Orbit data source: Space-Track

OPS 4682 DEB, 18533 is space debris in LEO originally from a launch on Sat, 03 Apr 1965 UTC launched from the Air Force Western Test Range (AFWTR). Debris objects in space refer to the collection of defunct objects orbiting the Earth. Examples of debris include non-operational satellites, rocket bodies, and fragments generated from explosions, collisions, or faulty payload assembly.

Loading next visibility...
Identifier
18533, 1965-027AD
Orbit
LEO
Country
Flag of USUS
Related business
Manufacturer
Unknown
Mission
Spacecraft
Bus & Motor
Unknown
Mass
Unknown
Launch date (UTC)
1965-04-03 (61 years ago)
Launch vehicle
Unknown
Launch site
Air Force Western Test Range (AFWTR)
Object type
Payload
Rocket body
Debris
Shape & HBR
Unknown shape, 0.1 m
Radar Cross Section
Medium (>0.1 m² and <1 m²)

Expand to show TLE details & history
Last TLE update: 11 hours ago

TLE from 11 hours ago
0 OPS 4682 DEB
1 18533U 65027AD  26177.50468159  .00000199  00000-0  67190-3 0  9996
2 18533  90.2378   6.5686 0028417  99.4386 325.5188 12.96123170895313
Epoch: 2026-06-26T12:06Z
TLE epoch observation values (Epoch: 2026-06-26T12:06:44.489Z)
Latitude
64.85142°
Longitude
-90.253°
Altitude
1,270.662 km
Speed
7.235 km/s
True Right ascension
00h 24m 15s
True Declination
64° 43' 40"
Sunlit
Object was in daylight at epoch
Visualization orbit readout
Latitude
Unknown
Longitude
Unknown
Altitude
Unknown
Speed
Unknown
Apparent Right ascension
Unknown
Apparent Declination
Unknown
Sunlit
N/A
Visualization observer readout
Local Sidereal Time
10:00:52
Azimuth
Unknown
Elevation
Unknown
Doppler factor
Unknown
Orbital elements
Apogee altitude
1,296.193 km
Perigee altitude
1,252.701 km
Semi-major axis
7,652.584 km
Eccentricity
0.00284
Inclination
90.2378°
RAAN
6.5686°
Arg. of periapsis
99.4386°
True anomaly
325.33391°
Mean anomaly
325.5188°
Eccentric anomaly
325.42641°
Mean motion
3.24213 °/min
Orbital period
111.04 mins
BSTAR
0.0006719
Loading maneuver chart data...
Computing Atmospheric mass density...
Loading historical data...
Loading historical data...
Loading historical data...
Loading historical data...
Loading historical data...
Loading historical data...
Loading historical data...

Documentation

Showing up to 5 results
|